Location: Kaseke
(18.0171°S, 31.0526°E)
Time: 12:43:01
(UTC+00:00)

Cosmos 1980 Rocket - Pass Details

Date: 14 July 2020
Orbit: 828 x 851 km, 71.0° (Epoch: 07 August)

Event Time Altitude Azimuth Distance (km) Brightness Sun altitude
Exits shadow 03:50:32 10° 262° (W) 2,436 4.0 -9.0°
Maximum altitude 03:52:04 11° 246° (WSW) 2,359 3.8 -8.7°
Drops below altitude 10° 03:53:48 10° 228° (SW) 2,455 4.0 -8.3°
Sets 03:58:18 0° 194° (SSW) 3,392 5.0 -7.3°
